Location: Detroit
(42.3310°N, 83.0460°W)
Time: 07:59:04
(UTC-05:00)

ISS - Pass Details

Date: 07 December 2021
Orbit: 413 x 422 km, 51.6° (Epoch: 24 January)

Event Time Altitude Azimuth Distance (km) Brightness Sun altitude
Rises 17:18:05 0° 306° (NW) 2,384 0.5 -3.8°
Reaches altitude 10° 17:20:15 10° 312° (NW) 1,515 -0.6 -4.2°
Maximum altitude 17:23:34 49° 29° (NNE) 552 -3.5 -4.7°
Drops below altitude 10° 17:26:52 10° 106° (ESE) 1,503 -1.4 -5.3°
Enters shadow 17:29:36 -2° 113° (ESE) 2,610 -0.1 -5.7°
